EW9082 Weather Reports


Display with metric or nautical units.
time (UTC)temp
F
wind
direction
speed
MPH
gust
MPH
rain 1hr
in
rain 24hr
in
rain mn
in
humidity
%
barometer
mb
20260507114530 49 303 0.0 0.0 0.02 0.31 0.15 97 1009.5
20260507113024 49 303 0.0 0.0 0.02 0.31 0.15 97 1009.5
20260507111524 48 303 0.0 0.0 0.01 0.30 0.14 97 1009.5
20260507110023 48 303 0.0 2.0 0.02 0.30 0.14 97 1009.5
20260507104524 48 303 0.0 1.0 0.01 0.28 0.13 97 1009.2
20260507103023 48 316 1.0 3.0 0.02 0.28 0.13 97 1008.9
20260507101601 49 311 1.0 3.0 0.02 0.28 0.13 97 1008.9
20260507100058 49 311 0.0 0.0 0.02 0.28 0.12 97 1009.1
20260507094540 49 311 0.0 0.0 0.02 0.28 0.12 97 1009.0
20260507093039 49 311 0.0 0.0 0.02 0.27 0.11 97 1008.6
20260507091520 49 311 0.0 2.0 0.02 0.27 0.11 96 1008.4
20260507090028 50 311 0.0 2.0 0.03 0.26 0.10 96 1008.4
20260507084504 50 311 0.0 1.0 0.09 0.26 0.10 96 1008.5
20260507083004 50 312 0.0 3.0 0.09 0.25 0.09 96 1008.4
20260507081500 51 308 1.0 4.0 0.08 0.24 0.08 96 1008.6
20260507080057 52 314 3.0 6.0 0.07 0.23 0.07 96 1008.3
20260507074553 54 316 2.0 4.0 0.01 0.17 0.01 97 1008.3
20260507073051 54 160 0.0 1.0 0.00 0.16 0.00 97 1008.0
20260507071554 54 95 0.0 0.0 0.00 0.16 0.00 97 1007.1
20260507070100 54 95 0.0 0.0 0.00 0.16 0.00 97 1006.9
20260507064535 54 95 0.0 0.0 0.00 0.16 0.00 97 1007.2
20260507063034 54 95 0.0 0.0 0.00 0.16 0.00 97 1007.5
20260507061512 54 95 0.0 0.0 0.00 0.16 0.00 97 1007.3
20260507060009 54 95 0.0 0.0 0.00 0.16 0.00 97 1007.5
20260507054555 54 95 0.0 1.0 0.00 0.16 0.16 96 1007.7
20260507053052 54 150 0.0 1.0 0.00 0.16 0.16 96 1008.0
20260507051538 54 105 0.0 2.0 0.00 0.16 0.16 97 1008.1
20260507050034 54 185 0.0 3.0 0.00 0.16 0.16 97 1008.3
20260507044511 54 179 0.0 2.0 0.00 0.16 0.16 97 1008.2
20260507043010 55 156 0.0 3.0 0.00 0.16 0.16 96 1008.4
20260507041552 55 127 0.0 1.0 0.00 0.16 0.16 97 1008.2
20260507040051 55 205 0.0 4.0 0.00 0.16 0.16 96 1008.4
20260507034550 55 243 1.0 4.0 0.00 0.16 0.16 96 1008.2
20260507033036 55 159 0.0 3.0 0.00 0.16 0.16 96 1008.5
20260507031513 55 215 0.0 3.0 0.00 0.16 0.16 96 1008.8
20260507030018 55 202 0.0 6.0 0.00 0.16 0.16 96 1008.5
20260507024600 55 218 0.0 6.0 0.00 0.16 0.16 96 1008.5
20260507023055 55 72 0.0 9.0 0.00 0.16 0.16 96 1008.5
20260507021547 55 159 1.0 6.0 0.00 0.16 0.16 96 1008.6
20260507020043 55 103 1.0 9.0 0.00 0.16 0.16 96 1008.5
20260507014543 55 153 2.0 9.0 0.00 0.16 0.16 96 1008.7
20260507013038 55 196 4.0 9.0 0.00 0.16 0.16 96 1008.7
20260507011542 55 205 1.0 6.0 0.00 0.16 0.16 96 1008.9
20260507010042 55 117 2.0 8.0 0.00 0.16 0.16 96 1009.1
20260507004535 55 160 2.0 8.0 0.00 0.16 0.16 96 1009.0
20260507003033 55 210 2.0 7.0 0.00 0.16 0.16 96 1008.9
20260507001516 55 188 3.0 8.0 0.00 0.16 0.16 96 1008.9
20260507000013 55 197 2.0 8.0 0.01 0.16 0.16 96 1009.0
20260506234607 55 206 2.0 10.0 0.02 0.16 0.16 96 1008.9
20260506233102 55 252 4.0 14.0 0.05 0.16 0.16 96 1009.0
20260506231538 55 149 4.0 13.0 0.09 0.16 0.16 96 1009.0
20260506230042 54 154 1.0 7.0 0.12 0.15 0.15 96 1008.9
20260506224517 54 143 2.0 7.0 0.12 0.14 0.14 96 1008.9
20260506223014 54 155 3.0 8.0 0.09 0.11 0.11 95 1009.0
20260506221554 54 189 3.0 8.0 0.06 0.07 0.07 95 1009.0
20260506220053 55 80 1.0 8.0 0.02 0.03 0.03 95 1009.5
20260506214532 55 203 1.0 9.0 0.01 0.02 0.02 95 1009.4
20260506213032 55 168 2.0 6.0 0.01 0.02 0.02 94 1009.6
20260506211515 55 174 2.0 7.0 0.00 0.01 0.01 93 1009.7
20260506210015 55 169 2.0 7.0 0.00 0.01 0.01 93 1009.8
20260506204511 56 78 2.0 11.0 0.01 0.01 0.01 92 1009.9
20260506203013 56 121 2.0 9.0 0.01 0.01 0.01 91 1010.1
20260506201512 57 156 4.0 10.0 0.01 0.01 0.01 91 1010.1
20260506200011 57 213 4.0 17.0 0.01 0.01 0.01 91 1010.2
20260506194507 58 155 2.0 15.0 0.00 0.00 0.00 89 1010.3
20260506193006 59 110 4.0 11.0 0.00 0.00 0.00 86 1010.4
20260506191548 60 151 6.0 12.0 0.00 0.00 0.00 83 1010.4
20260506190045 60 150 4.0 16.0 0.00 0.00 0.00 82 1010.4
20260506184528 61 174 4.0 12.0 0.00 0.00 0.00 82 1010.5
20260506183029 61 59 6.0 17.0 0.00 0.00 0.00 81 1010.7
20260506181509 61 128 3.0 13.0 0.00 0.00 0.00 81 1010.9
20260506180008 62 168 4.0 11.0 0.00 0.00 0.00 80 1011.0
20260506174601 62 125 4.0 14.0 0.00 0.00 0.00 79 1011.3
20260506173125 63 166 3.0 14.0 0.00 0.00 0.00 78 1011.5
20260506171553 64 212 5.0 14.0 0.00 0.00 0.00 77 1011.6
20260506170051 64 85 6.0 17.0 0.00 0.00 0.00 77 1011.6
20260506164550 64 198 5.0 16.0 0.00 0.00 0.00 78 1011.8
20260506163053 63 197 5.0 11.0 0.00 0.00 0.00 78 1012.1
20260506161548 64 230 4.0 13.0 0.00 0.00 0.00 77 1012.1
20260506160047 65 167 1.0 15.0 0.00 0.00 0.00 76 1012.3
20260506154530 64 86 5.0 16.0 0.00 0.00 0.00 76 1012.5
20260506153040 64 206 6.0 16.0 0.00 0.00 0.00 77 1012.4
20260506151526 64 153 4.0 18.0 0.00 0.00 0.00 77 1012.5
20260506150025 64 221 6.0 15.0 0.00 0.00 0.00 78 1012.8
20260506144537 63 217 4.0 10.0 0.00 0.00 0.00 78 1012.5
20260506143024 63 209 4.0 12.0 0.00 0.00 0.00 79 1012.6
20260506141526 63 201 3.0 14.0 0.00 0.00 0.00 79 1012.7
20260506140040 63 212 4.0 14.0 0.00 0.00 0.00 78 1012.4
20260506134530 63 195 7.0 14.0 0.00 0.00 0.00 79 1012.7
20260506133020 62 84 6.0 18.0 0.00 0.00 0.00 81 1013.0
20260506131523 61 155 5.0 14.0 0.00 0.00 0.00 82 1013.0
20260506130016 60 210 3.0 12.0 0.00 0.00 0.00 84 1013.0
20260506124513 60 214 7.0 15.0 0.00 0.00 0.00 85 1013.0
20260506123014 59 139 5.0 13.0 0.00 0.00 0.00 86 1013.0
20260506121554 59 176 5.0 13.0 0.00 0.00 0.00 88 1013.0
20260506120046 57 179 5.0 13.0 0.00 0.00 0.00 89 1013.1